Location: Grand Rapids
(42.9630°N, 85.6680°W)
Time: 02:49:07
(UTC-04:00)

S-56A Canister/Altair - Pass Details

Date: 03 June 2024
Orbit: 637 x 2489 km, 38.9° (Epoch: 22 June)

Event Time Altitude Azimuth Distance (km) Brightness Sun altitude
Rises 02:10:57 0° 202° (SSW) 5,721 - -24.3°
Reaches altitude 10° 02:15:09 10° 193° (SSW) 4,900 - -24.2°
Exits shadow 02:22:38 27° 163° (SSE) 3,860 10.5 -24.0°
Maximum altitude 02:26:52 31° 138° (SE) 3,687 10.6 -23.8°
Drops below altitude 10° 02:38:41 10° 84° (E) 4,974 11.9 -23.3°
Sets 02:42:55 0° 76° (ENE) 5,821 12.4 -23.1°
